Regional Weather Roundup
Issued by NWS

Home | Current Version | Previous Version | Graphics & Text | Print | Product List | Glossary On
Versions: 1 2 3 4 5 6 7 8 9 10 11 12 13 14 15 16 17 18 19 20 21 22 23 24 25 26 27 28 29 30 31 32 33 34 35 36 37 38 39 40 41 42 43 44 45 46 47 48 49 50
000
ASUS43 KMKX 251059
RWRWI

WISCONSIN REGIONAL WEATHER ROUNDUP
NATIONAL WEATHER SERVICE MILWAUKEE/SULLIVAN WI
600 AM CDT THU MAY 25 2017

NOTE: "FAIR" INDICATES FEW OR NO CLOUDS BELOW 12,000 FEET WITH NO
SIGNIFICANT WEATHER AND/OR OBSTRUCTIONS TO VISIBILITY.

WIZ001-002-006>008-014>016-023>028-251200-
NORTHWEST WISCONSIN

CITY           SKY/WX    TMP DP  RH WIND       PRES   REMARKS
SUPERIOR ARPT  NOT AVBL
ASHLAND        CLOUDY    41  40  96 CALM      29.76S
HAYWARD        CLOUDY    45  43  93 CALM      29.74R
SIREN          CLEAR     43  42  96 CALM      29.73R
CUMBERLAND     CLOUDY    48  46  93 E5        29.72S
RICE LAKE      CLOUDY    52  48  87 CALM      29.73F
CHETEK         CLOUDY    52  49  88 CALM      29.72S
LADYSMITH      MOCLDY    51  47  87 CALM      29.74S
EAU CLAIRE     NOT AVBL
MENOMONIE      CLOUDY    49  48  97 SW3       29.71S
NEW RICHMOND   FOG       42  41  99 CALM      29.72R VSB 1
OSCEOLA        CLEAR     44  44 100 E5        29.74S
$$

WIZ003>005-009-010-017-018-251200-
NORTH CENTRAL WISCONSIN

CITY           SKY/WX    TMP DP  RH WIND       PRES   REMARKS
MANITOWISH WTR MOCLDY    45  45 100 E3        29.73F
ARBOR VITAE    PTCLDY    47  45  93 CALM      29.72F
WOODRUFF       PTCLDY    47  45  93 CALM      29.72F
RHINELANDER    PTCLDY    47  45  93 NE3       29.73S
EAGLE RIVER    MOCLDY    45  44  98 CALM      29.73S
LAND O LAKES   CLOUDY    46  44  91 CALM      29.76S
PHILLIPS       MOCLDY    46  46 100 CALM      29.73S
TOMAHAWK       CLOUDY    43  42  97 CALM      29.72S FOG
MEDFORD        CLEAR     44  43  97 N3        29.72R
MERRILL        CLOUDY    47  47 100 CALM      29.71S
$$

WIZ029-030-035-036-043>047-251200-
CENTRAL WISCONSIN

CITY           SKY/WX    TMP DP  RH WIND       PRES   REMARKS
WAUSAU         CLEAR     49  47  93 CALM      29.69S
MOSINEE        PTCLDY    48  48 100 N7        29.71S
MARSHFIELD     PTCLDY    48  45  89 N5        29.70R
STEVENS POINT  CLEAR     44  44 100 N5        29.70R
WAUPACA        CLEAR     48  47  97 N5        29.68S
WAUTOMA        PTCLDY    50  48  93 N5        29.69R
WISC RAPIDS    CLEAR     49  47  93 N5        29.71R
CAMP DOUGLAS   NOT AVBL
$$

WIZ011>013-019>022-031-037>040-048>050-251200-
NORTHEAST WISCONSIN

CITY           SKY/WX    TMP DP  RH WIND       PRES   REMARKS
ANTIGO         CLOUDY    46  46 100 NE9       29.71S
SHAWANO        MOCLDY    51  48  89 N3        29.68F
OCONTO         CLEAR     48  46  92 N6        29.66S
STURGEON BAY   PTCLDY    51  48  89 NE9       29.66F
GREEN BAY      CLEAR     48  48 100 N7        29.66S
MANITOWOC      NOT AVBL
APPLETON       NOT AVBL
CLINTONVILLE   PTCLDY    48  46  93 N6        29.68S
OSHKOSH        CLOUDY    51  48  89 N9        29.65S
$$

WIZ032>034-041-042-053>061-251200-
SOUTHWEST WISCONSIN

CITY           SKY/WX    TMP DP  RH WIND       PRES   REMARKS
LA CROSSE      FOG       46  45  96 CALM      29.70R VSB 1/4
SPARTA         CLOUDY    46  46 100 CALM      29.70S
VIROQUA        CLOUDY    51  48  90 MISG      29.68S
BOSCOBEL       CLOUDY    55  49  80 NE5       29.68S
PRAIRIE DU CHI CLOUDY    52  48  85 CALM      29.69R
PLATTEVILLE    CLOUDY    53  52  97 N9        29.67S
$$

WIZ056-057-062-063-064-067-068-251200-
SOUTH CENTRAL WISCONSIN

CITY           SKY/WX    TMP DP  RH WIND       PRES   REMARKS
REEDSBURG      CLOUDY    52  52  99 N5        29.68R
BARABOO/DELLS  CLOUDY    52  49  88 NE5       29.68R
LONE ROCK      NOT AVBL
MINERAL POINT  CLOUDY    54  52  94 N7        29.67R
MADISON        CLOUDY    52  50  93 N10       29.66R
MIDDLETON      CLOUDY    54  53  97 N6        29.67R
WATERTOWN      CLOUDY    52  52  99 N9        29.63S
MONROE         CLOUDY    52  50  93 N10       29.65R
JANESVILLE     CLOUDY    54  52  94 N9        29.63R
$$

WIZ051-052-058>065-066-070>072-251200-
SOUTHEAST WISCONSIN

CITY           SKY/WX    TMP DP  RH WIND       PRES   REMARKS
MILWAUKEE      CLOUDY    53  50  89 N14       29.60R
WAUKESHA       CLOUDY    50  48  93 N8        29.62S
MILWAUKEE/TIMM   N/A     50  46  87 N6        29.62R
RACINE         CLOUDY    50  46  86 N15G24    29.61R
KENOSHA        CLOUDY    52  49  89 N9        29.59R
FOND DU LAC    CLOUDY    53  48  83 N9        29.65R
SHEBOYGAN      CLEAR     49  49 100 N6        29.63R
WEST BEND      CLOUDY    52  50  93 N8G16     29.63R
JUNEAU         CLOUDY    52  49  92 N8        29.65R
$$

LSZ147-162-251200-
LAKE SUPERIOR

STATION/POSITION TIME  TEMP    WIND        PRES    WAVE
                       AIR SEA DIR/SP/G            HT/PER
                 (UTC) (F)     (DEG/KT/KT) (MB)    (FT/S)
$$

LMZ867-665-643>646-251200-
LAKE MICHIGAN

STATION/POSITION TIME  TEMP    WIND        PRES    WAVE
                       AIR SEA DIR/SP/G            HT/PER
                 (UTC) (F)     (DEG/KT/KT) (MB)    (FT/S)
$$

TC  - TEMPERATURE IN CELSIUS
VSB - VISIBILITY IN STATUTE MILES
WCI - WIND CHILL INDEX
HX  - HEAT INDEX




USA.gov is the U.S. government's official web portal to all federal, state and local government web resources and services.